TimeEST,TemperatureF,Dew PointF,Humidity,Sea Level PressureIn,VisibilityMPH,Wind Direction,Wind SpeedMPH,Gust SpeedMPH,PrecipitationIn,Events,Conditions,WindDirDegrees,DateUTC
12:15 AM,24.8,17.6,74,30.44,10.0,Calm,Calm,-,N/A,,Overcast,0,2014-01-09 05:15:00
12:35 AM,23.0,19.4,86,30.44,10.0,Calm,Calm,-,N/A,,Overcast,0,2014-01-09 05:35:00
12:55 AM,24.8,15.8,69,30.45,10.0,Calm,Calm,-,N/A,,Mostly Cloudy,0,2014-01-09 05:55:00
1:15 AM,24.8,15.8,69,30.44,10.0,NNW,3.5,-,N/A,,Overcast,330,2014-01-09 06:15:00
1:35 AM,23.0,15.8,74,30.45,10.0,NNW,3.5,-,N/A,,Overcast,330,2014-01-09 06:35:00
1:55 AM,23.0,15.8,74,30.45,10.0,North,3.5,-,N/A,,Overcast,360,2014-01-09 06:55:00
2:15 AM,23.0,17.6,80,30.46,10.0,NNW,3.5,-,N/A,,Overcast,340,2014-01-09 07:15:00
2:35 AM,21.2,17.6,86,30.48,10.0,Calm,Calm,-,N/A,,Overcast,0,2014-01-09 07:35:00
2:55 AM,23.0,17.6,80,30.48,8.0,Calm,Calm,-,N/A,,Overcast,0,2014-01-09 07:55:00
3:15 AM,23.0,19.4,86,30.49,10.0,Calm,Calm,-,N/A,,Overcast,0,2014-01-09 08:15:00
3:35 AM,23.0,17.6,80,30.48,10.0,Calm,Calm,-,N/A,,Overcast,0,2014-01-09 08:35:00
3:55 AM,21.2,17.6,86,30.48,10.0,Calm,Calm,-,N/A,,Overcast,0,2014-01-09 08:55:00
4:15 AM,21.2,17.6,86,30.48,10.0,Calm,Calm,-,N/A,,Overcast,0,2014-01-09 09:15:00
4:35 AM,23.0,17.6,80,30.48,9.0,Calm,Calm,-,N/A,,Overcast,0,2014-01-09 09:35:00
4:55 AM,21.2,17.6,86,30.49,5.0,Calm,Calm,-,N/A,,Overcast,0,2014-01-09 09:55:00
5:15 AM,21.2,19.4,93,30.50,3.0,Calm,Calm,-,N/A,,Overcast,0,2014-01-09 10:15:00
5:35 AM,21.2,19.4,93,30.50,7.0,Calm,Calm,-,N/A,,Overcast,0,2014-01-09 10:35:00
5:55 AM,21.2,19.4,93,30.50,9.0,Calm,Calm,-,N/A,,Overcast,0,2014-01-09 10:55:00
6:15 AM,21.2,19.4,93,30.50,10.0,Calm,Calm,-,N/A,,Overcast,0,2014-01-09 11:15:00
6:35 AM,21.2,19.4,93,30.50,10.0,Calm,Calm,-,N/A,,Overcast,0,2014-01-09 11:35:00
6:55 AM,21.2,19.4,93,30.51,10.0,Calm,Calm,-,N/A,,Overcast,0,2014-01-09 11:55:00
7:15 AM,21.2,19.4,93,30.52,10.0,Calm,Calm,-,N/A,,Overcast,0,2014-01-09 12:15:00
7:35 AM,21.2,19.4,93,30.52,10.0,Calm,Calm,-,N/A,,Overcast,0,2014-01-09 12:35:00
7:55 AM,21.2,19.4,93,30.53,10.0,Calm,Calm,-,N/A,,Overcast,0,2014-01-09 12:55:00
8:15 AM,21.2,19.4,93,30.53,10.0,Calm,Calm,-,N/A,,Overcast,0,2014-01-09 13:15:00
8:35 AM,21.2,19.4,93,30.54,10.0,Calm,Calm,-,N/A,,Overcast,0,2014-01-09 13:35:00
8:55 AM,23.0,19.4,86,30.54,10.0,Calm,Calm,-,N/A,,Overcast,0,2014-01-09 13:55:00
9:15 AM,23.0,19.4,86,30.55,10.0,Calm,Calm,-,N/A,,Overcast,0,2014-01-09 14:15:00
9:35 AM,24.8,19.4,80,30.55,10.0,East,4.6,-,N/A,,Overcast,100,2014-01-09 14:35:00
9:55 AM,24.8,19.4,80,30.55,10.0,ENE,3.5,-,N/A,,Overcast,70,2014-01-09 14:55:00
10:15 AM,24.8,19.4,80,30.54,10.0,East,4.6,-,N/A,,Scattered Clouds,90,2014-01-09 15:15:00
10:35 AM,26.6,19.4,74,30.53,10.0,East,3.5,-,N/A,,Clear,90,2014-01-09 15:35:00
10:55 AM,26.6,19.4,74,30.53,10.0,East,4.6,-,N/A,,Clear,90,2014-01-09 15:55:00
11:15 AM,28.4,19.4,69,30.52,10.0,ESE,4.6,-,N/A,,Clear,110,2014-01-09 16:15:00
11:35 AM,28.4,21.2,74,30.51,10.0,East,6.9,-,N/A,,Clear,90,2014-01-09 16:35:00
11:55 AM,28.4,21.2,74,30.51,10.0,ENE,3.5,-,N/A,,Clear,70,2014-01-09 16:55:00
12:15 PM,30.2,21.2,69,30.50,10.0,Calm,Calm,-,N/A,,Clear,0,2014-01-09 17:15:00
12:35 PM,30.2,21.2,69,30.48,10.0,SSE,4.6,-,N/A,,Clear,160,2014-01-09 17:35:00
12:55 PM,32.0,21.2,64,30.47,10.0,SSE,8.1,-,N/A,,Clear,160,2014-01-09 17:55:00
1:15 PM,32.0,21.2,64,30.46,10.0,South,5.8,-,N/A,,Clear,170,2014-01-09 18:15:00
1:35 PM,33.8,21.2,60,30.45,10.0,Calm,Calm,-,N/A,,Clear,0,2014-01-09 18:35:00
1:55 PM,33.8,21.2,60,30.44,10.0,SSE,3.5,-,N/A,,Clear,160,2014-01-09 18:55:00
2:15 PM,33.8,21.2,60,30.43,10.0,Calm,Calm,-,N/A,,Clear,0,2014-01-09 19:15:00
2:35 PM,33.8,21.2,60,30.43,10.0,SSE,4.6,-,N/A,,Clear,160,2014-01-09 19:35:00
2:55 PM,35.6,21.2,56,30.41,10.0,East,6.9,-,N/A,,Clear,90,2014-01-09 19:55:00
3:35 PM,35.6,21.2,56,30.43,10.0,SE,3.5,-,N/A,,Mostly Cloudy,140,2014-01-09 20:35:00
3:55 PM,35.6,23.0,60,30.42,10.0,ESE,3.5,-,N/A,,Overcast,110,2014-01-09 20:55:00
4:15 PM,33.8,21.2,60,30.43,10.0,SE,4.6,-,N/A,,Overcast,130,2014-01-09 21:15:00
4:35 PM,33.8,21.2,60,30.43,10.0,Calm,Calm,-,N/A,,Mostly Cloudy,0,2014-01-09 21:35:00
4:55 PM,33.8,21.2,60,30.42,10.0,Calm,Calm,-,N/A,,Mostly Cloudy,0,2014-01-09 21:55:00
5:15 PM,33.8,21.2,60,30.42,10.0,Calm,Calm,-,N/A,,Mostly Cloudy,0,2014-01-09 22:15:00
6:15 PM,32.0,24.8,75,30.40,10.0,Calm,Calm,-,N/A,,Overcast,0,2014-01-09 23:15:00
6:35 PM,32.0,24.8,75,30.40,10.0,Calm,Calm,-,N/A,,Overcast,0,2014-01-09 23:35:00
6:55 PM,32.0,23.0,69,30.41,10.0,Calm,Calm,-,N/A,,Overcast,0,2014-01-09 23:55:00
7:15 PM,32.0,24.8,75,30.41,10.0,Calm,Calm,-,N/A,,Overcast,0,2014-01-10 00:15:00
7:35 PM,32.0,24.8,75,30.40,10.0,East,4.6,-,N/A,,Overcast,80,2014-01-10 00:35:00
7:55 PM,32.0,24.8,75,30.39,10.0,Calm,Calm,-,N/A,,Overcast,0,2014-01-10 00:55:00
8:15 PM,32.0,24.8,75,30.38,10.0,Calm,Calm,-,N/A,,Overcast,0,2014-01-10 01:15:00
8:35 PM,32.0,24.8,75,30.38,10.0,Calm,Calm,-,N/A,,Overcast,0,2014-01-10 01:35:00
8:55 PM,32.0,23.0,69,30.37,10.0,Calm,Calm,-,N/A,,Overcast,0,2014-01-10 01:55:00
9:15 PM,32.0,24.8,75,30.37,10.0,Calm,Calm,-,N/A,,Overcast,0,2014-01-10 02:15:00
9:35 PM,32.0,24.8,75,30.36,10.0,Calm,Calm,-,N/A,,Overcast,0,2014-01-10 02:35:00
9:55 PM,32.0,24.8,75,30.36,10.0,Calm,Calm,-,N/A,,Overcast,0,2014-01-10 02:55:00
10:15 PM,32.0,24.8,75,30.37,10.0,Calm,Calm,-,N/A,,Overcast,0,2014-01-10 03:15:00
10:35 PM,30.2,24.8,80,30.38,10.0,SW,6.9,-,N/A,,Overcast,230,2014-01-10 03:35:00
10:55 PM,32.0,24.8,75,30.39,10.0,SSW,5.8,-,N/A,,Mostly Cloudy,210,2014-01-10 03:55:00
11:15 PM,32.0,26.6,80,30.38,4.0,SSW,3.5,-,N/A,,Overcast,200,2014-01-10 04:15:00
11:35 PM,32.0,28.4,87,30.35,10.0,Calm,Calm,-,N/A,,Mostly Cloudy,0,2014-01-10 04:35:00
11:55 PM,30.2,28.4,93,30.34,10.0,Calm,Calm,-,N/A,,Overcast,0,2014-01-10 04:55:00